����,���ϕ���(m/s),���ϕ���,�ő�u�ԕ���(m/s),�ő啗��������,�C��(��),���x(%),10���Ԉړ��ώZ�J��(mm),1���Ԉړ��ώZ�J��(mm),���J��(mm),�݌v�J��(mm),����(���ώZ)(MJ/m2),����(���ώZ)(min),���n�C��(hPa),�C�ʋC��(hPa)
2024-05-13T00:00:00+09:00,0.6,��쓌,2.3,���쓌,17.6,98.5,2.5,8.5,15,15,5.46,3,995.9,1009.5
2024-05-13T00:01:00+09:00,0.6,��쓌,2.3,���쓌,17.6,98.5,2.5,8.5,0,15,0,0,995.8,1009.4
2024-05-13T00:02:00+09:00,0.6,��쓌,2.3,���쓌,17.6,98.5,3,9,0.5,15.5,0,0,995.8,1009.4
2024-05-13T00:03:00+09:00,0.6,��쓌,2.3,���쓌,17.6,98.5,2.5,8.5,0.5,15.5,0,0,995.8,1009.4
2024-05-13T00:04:00+09:00,0.6,��쓌,2.3,���쓌,17.6,98.6,2.5,8.5,0.5,15.5,0,0,995.8,1009.4
2024-05-13T00:05:00+09:00,0.6,�쓌,2.3,���쓌,17.6,98.6,3,9,1,16,0,0,995.8,1009.4
2024-05-13T00:06:00+09:00,0.7,�쓌,2.3,���쓌,17.6,98.6,2.5,9,1,16,0,0,995.7,1009.3
2024-05-13T00:07:00+09:00,0.6,�쓌,1.8,�쓌,17.6,98.6,2.5,9,1,16,0,0,995.7,1009.3
2024-05-13T00:08:00+09:00,0.6,�쓌,1.8,�쓌,17.6,98.6,2.5,9.5,1.5,16.5,0,0,995.7,1009.3
2024-05-13T00:09:00+09:00,0.6,�쓌,1.8,�쓌,17.6,98.6,2,9.5,1.5,16.5,0,0,995.7,1009.3
2024-05-13T00:10:00+09:00,0.6,��쓌,1.8,�쓌,17.6,98.6,1.5,9.5,1.5,16.5,0,0,995.7,1009.3
2024-05-13T00:11:00+09:00,0.6,��쓌,1.6,���쓌,17.6,98.6,2,10,2,17,0,0,995.7,1009.3
2024-05-13T00:12:00+09:00,0.5,��쓌,1.6,���쓌,17.6,98.6,1.5,9.5,2,17,0,0,995.6,1009.2
2024-05-13T00:13:00+09:00,0.5,��쓌,1.6,���쓌,17.6,98.6,2,10,2.5,17.5,0,0,995.6,1009.2
2024-05-13T00:14:00+09:00,0.5,��쓌,1.6,���쓌,17.6,98.7,2,10,2.5,17.5,0,0,995.5,1009.1
2024-05-13T00:15:00+09:00,0.4,��쓌,1.6,���쓌,17.7,98.7,2,10.5,3,18,0,0,995.6,1009.2
2024-05-13T00:16:00+09:00,0.4,��쓌,1.5,��,17.6,98.7,2,10,3,18,0,0,995.5,1009.1
2024-05-13T00:17:00+09:00,0.4,��쓌,1.5,��,17.6,98.6,2,10,3,18,0,0,995.4,1009
2024-05-13T00:18:00+09:00,0.4,�쓌,1.5,��,17.6,98.7,2,10.5,3.5,18.5,0,0,995.4,1009
2024-05-13T00:19:00+09:00,0.4,�쓌,1.5,��,17.6,98.7,2,10.5,3.5,18.5,0,0,995.4,1009
2024-05-13T00:20:00+09:00,0.3,�쓌,1.4,��,17.5,98.7,2,10,3.5,18.5,0,0,995.4,1009
2024-05-13T00:21:00+09:00,0.3,���쓌,1.9,���k��,17.6,98.7,2,10.5,4,19,0,0,995.3,1008.9
2024-05-13T00:22:00+09:00,0.3,���쓌,1.9,���k��,17.5,98.7,2,10.5,4,19,0,0,995.4,1009
2024-05-13T00:23:00+09:00,0.4,���쓌,1.9,���k��,17.5,98.7,2,10.5,4.5,19.5,0,0,995.3,1008.9
2024-05-13T00:24:00+09:00,0.4,���쓌,1.9,���k��,17.6,98.7,2,10.5,4.5,19.5,0,0,995.3,1008.9
2024-05-13T00:25:00+09:00,0.4,���쓌,1.9,���k��,17.6,98.8,1.5,10.5,4.5,19.5,0,0,995.3,1008.9
2024-05-13T00:26:00+09:00,0.4,���쓌,1.9,���k��,17.6,98.7,2,10.5,5,20,0,0,995.2,1008.8
2024-05-13T00:27:00+09:00,0.4,���쓌,1.9,���k��,17.6,98.7,2,10.5,5,20,0,0,995.2,1008.8
2024-05-13T00:28:00+09:00,0.4,���쓌,1.9,���k��,17.6,98.7,1.5,10.5,5,20,0,0,995.2,1008.8
2024-05-13T00:29:00+09:00,0.4,���쓌,1.9,���k��,17.6,98.7,1.5,10,5,20,0,0,995.2,1008.8
2024-05-13T00:30:00+09:00,0.4,�쓌,1.9,���k��,17.6,98.7,2,10.5,5.5,20.5,0,0,995.2,1008.8
2024-05-13T00:31:00+09:00,,,,,,,,,,,,,,
2024-05-13T00:32:00+09:00,0.3,�쓌,1.2,�쓌,17.7,98.9,1.5,10.5,5.5,20.5,0,0,995.2,1008.8
2024-05-13T00:33:00+09:00,0.2,�É�,1.2,�쓌,17.6,98.8,1,10.5,5.5,20.5,0,0,995.1,1008.7
2024-05-13T00:34:00+09:00,0.2,�É�,1.2,�쓌,17.6,98.8,1,10,5.5,20.5,0,0,995,1008.6
2024-05-13T00:35:00+09:00,0.2,�É�,1.2,�쓌,17.6,98.8,1.5,10.5,6,21,0,0,995.1,1008.7
2024-05-13T00:36:00+09:00,0.2,�É�,1.2,�쓌,17.5,98.7,1,10.5,6,21,0,0,995.1,1008.7
2024-05-13T00:37:00+09:00,0.2,�É�,1.1,��,17.6,98.8,1,10.5,6,21,0,0,995,1008.6
2024-05-13T00:38:00+09:00,0.1,�É�,0.6,��,17.6,98.8,1,10,6,21,0,0,995,1008.6
2024-05-13T00:39:00+09:00,0.1,�É�,0.6,��,17.6,98.8,1,10,6,21,0,0,995,1008.6
2024-05-13T00:40:00+09:00,0.1,�É�,0.5,��,17.6,98.8,0.5,10,6,21,0,0,994.9,1008.5
2024-05-13T00:41:00+09:00,0.1,�É�,0.7,��,17.6,98.8,0.5,10,6,21,0,0,994.9,1008.5
2024-05-13T00:42:00+09:00,0.1,�É�,0.7,��,17.7,98.8,1,10,6.5,21.5,0,0,994.9,1008.5
2024-05-13T00:43:00+09:00,0.1,�É�,0.7,��,17.6,98.8,1,10,6.5,21.5,0,0,994.9,1008.5
2024-05-13T00:44:00+09:00,0.1,�É�,0.7,��,17.6,98.7,1,10,6.5,21.5,0,0,994.9,1008.5
2024-05-13T00:45:00+09:00,0.1,�É�,1.1,��,17.6,98.7,0.5,10,6.5,21.5,0,0,994.8,1008.4
2024-05-13T00:46:00+09:00,0.2,�É�,1.1,��,17.7,98.7,0.5,9.5,6.5,21.5,0,0,994.8,1008.4
2024-05-13T00:47:00+09:00,0.2,�É�,1.1,��,17.8,98.8,0.5,9.5,6.5,21.5,0,0,994.8,1008.4
2024-05-13T00:48:00+09:00,0.2,�É�,1.1,��,17.8,98.7,0.5,9.5,6.5,21.5,0,0,994.9,1008.5
2024-05-13T00:49:00+09:00,0.3,��쓌,1.1,��,17.7,98.7,0.5,9,6.5,21.5,0,0,994.9,1008.5
2024-05-13T00:50:00+09:00,0.3,��쐼,1.1,��,17.6,98.6,0.5,9,6.5,21.5,0,0,994.8,1008.4
2024-05-13T00:51:00+09:00,0.3,�쐼,1.1,��,17.8,98.7,0.5,9,6.5,21.5,0,0,994.8,1008.4
2024-05-13T00:52:00+09:00,0.4,�쐼,1.1,��,17.8,98.8,0,9,6.5,21.5,0,0,994.8,1008.4
2024-05-13T00:53:00+09:00,0.4,���쐼,1.1,��,17.8,98.9,0.5,9,7,22,0,0,994.7,1008.3
2024-05-13T00:54:00+09:00,0.5,���쐼,1.1,��,17.6,98.8,0.5,9,7,22,0,0,994.8,1008.4
2024-05-13T00:55:00+09:00,0.5,��,1.5,��,17.7,98.8,0.5,9,7,22,0,0,994.7,1008.3
2024-05-13T00:56:00+09:00,0.6,��,1.5,��,17.7,98.9,0.5,8.5,7,22,0,0,994.8,1008.4
2024-05-13T00:57:00+09:00,0.6,��,1.5,��,17.7,98.9,0.5,8.5,7,22,0,0,994.7,1008.3
2024-05-13T00:58:00+09:00,0.6,��,1.5,��,17.6,98.9,0.5,8,7,22,0,0,994.7,1008.3
2024-05-13T00:59:00+09:00,0.6,��,1.5,��,17.6,98.8,0.5,7.5,7,22,0,0,994.8,1008.4
2024-05-13T01:00:00+09:00,0.7,��,1.5,��,17.6,98.8,0.5,7,7,22,0,0,994.8,1008.4
2024-05-13T01:01:00+09:00,0.7,��,1.5,��,17.7,98.9,0.5,7,7,22,0,0,994.7,1008.3
2024-05-13T01:02:00+09:00,0.8,��,1.5,��,17.7,98.9,0.5,6.5,7,22,0,0,994.7,1008.3
2024-05-13T01:03:00+09:00,0.8,��,1.6,�k��,17.7,98.9,0,6.5,7,22,0,0,994.7,1008.3
2024-05-13T01:04:00+09:00,0.9,��,1.7,��,17.7,98.9,0,6.5,7,22,0,0,994.8,1008.4
2024-05-13T01:05:00+09:00,1,��,1.7,��,17.6,98.8,0,6,7,22,0,0,994.8,1008.4
2024-05-13T01:06:00+09:00,0.9,��,1.7,��,17.7,98.8,0.5,6.5,7.5,22.5,0,0,994.7,1008.3
2024-05-13T01:07:00+09:00,0.9,��,1.7,��,17.7,98.8,0.5,6.5,7.5,22.5,0,0,994.7,1008.3
2024-05-13T01:08:00+09:00,0.8,��,1.7,��,17.8,98.7,0.5,6,7.5,22.5,0,0,994.7,1008.3
2024-05-13T01:09:00+09:00,0.8,���k��,1.7,��,17.8,98.8,0.5,6,7.5,22.5,0,0,994.8,1008.4
2024-05-13T01:10:00+09:00,0.8,���k��,1.7,��,17.8,98.8,0.5,6,7.5,22.5,0,0,994.7,1008.3
2024-05-13T01:11:00+09:00,0.8,���k��,1.7,��,17.8,98.7,1,6,8,23,0,0,994.8,1008.4
2024-05-13T01:12:00+09:00,0.7,���k��,1.7,��,17.7,98.7,1,6,8,23,0,0,994.8,1008.4
2024-05-13T01:13:00+09:00,0.6,��,1.7,��,17.7,98.7,1,5.5,8,23,0,0,994.8,1008.4
2024-05-13T01:14:00+09:00,0.5,��,1.7,���쐼,17.7,98.7,1,5.5,8,23,0,0,994.8,1008.4
2024-05-13T01:15:00+09:00,0.4,���k��,1.1,��,17.8,98.8,1,5,8,23,0,0,994.7,1008.3
2024-05-13T01:16:00+09:00,0.4,���k��,1.1,��,17.9,98.9,0.5,5,8,23,0,0,994.8,1008.4
2024-05-13T01:17:00+09:00,0.5,���k��,1.1,��,17.8,98.9,1,5.5,8.5,23.5,0,0,994.8,1008.4
2024-05-13T01:18:00+09:00,0.5,��,1.1,��,17.8,98.8,1,5,8.5,23.5,0,0,994.8,1008.4
2024-05-13T01:19:00+09:00,0.5,��,1.1,��,17.8,98.8,1,5,8.5,23.5,0,0,994.8,1008.4
2024-05-13T01:20:00+09:00,0.4,���k��,1.1,��,17.8,98.8,1,5,8.5,23.5,0,0,994.7,1008.3
2024-05-13T01:21:00+09:00,0.4,���k��,1.1,��,17.9,98.8,0.5,4.5,8.5,23.5,0,0,994.7,1008.3
2024-05-13T01:22:00+09:00,0.4,�k��,1.1,��,17.9,98.9,0.5,4.5,8.5,23.5,0,0,994.7,1008.3
2024-05-13T01:23:00+09:00,0.3,�k��,1,��,18,98.8,1,4.5,9,24,0,0,994.7,1008.3
2024-05-13T01:24:00+09:00,0.3,�k��,0.9,��,17.8,98.8,1,4.5,9,24,0,0,994.7,1008.3
2024-05-13T01:25:00+09:00,0.3,�k��,0.9,��,17.7,98.6,1,4.5,9,24,0,0,994.7,1008.3
2024-05-13T01:26:00+09:00,0.3,�k��,1,��,17.8,98.7,1,4,9,24,0,0,994.6,1008.2
2024-05-13T01:27:00+09:00,0.2,�É�,1,��,17.7,98.8,0.5,4,9,24,0,0,994.7,1008.3
2024-05-13T01:28:00+09:00,0.2,�É�,1,��,17.8,98.8,0.5,4,9,24,0,0,994.7,1008.3
2024-05-13T01:29:00+09:00,0.2,�É�,1,��,17.8,98.8,1,4.5,9.5,24.5,0,0,994.6,1008.2
2024-05-13T01:30:00+09:00,0.2,�É�,1,��,17.9,98.8,1,4,9.5,24.5,0,0,994.6,1008.2
2024-05-13T01:31:00+09:00,0.2,�É�,1,��,18.1,99,1,4,9.5,24.5,0,0,994.5,1008.1
2024-05-13T01:32:00+09:00,0.2,�É�,1,��,18.1,98.9,1,4,9.5,24.5,0,0,994.6,1008.2
2024-05-13T01:33:00+09:00,0.2,�É�,1,��,18,98.8,0.5,4,9.5,24.5,0,0,994.6,1008.2
2024-05-13T01:34:00+09:00,0.2,�É�,1.7,���k��,17.8,98.6,0.5,4,9.5,24.5,0,0,994.6,1008.2
2024-05-13T01:35:00+09:00,0.4,�k��,2.1,���k��,17.9,98.6,0.5,3.5,9.5,24.5,0,0,994.5,1008.1
2024-05-13T01:36:00+09:00,0.4,�k��,2.1,���k��,18,98.8,0.5,3.5,9.5,24.5,0,0,994.5,1008.1
2024-05-13T01:37:00+09:00,0.4,���k��,2.1,���k��,18,98.8,0.5,3.5,9.5,24.5,0,0,994.6,1008.2
2024-05-13T01:38:00+09:00,0.4,��,2.1,���k��,17.9,98.8,1,4,10,25,0,0,994.6,1008.2
2024-05-13T01:39:00+09:00,0.5,��,2.1,���k��,17.7,98.6,0.5,4,10,25,0,0,994.6,1008.2
2024-05-13T01:40:00+09:00,0.7,���k��,2.8,���k��,17.9,98.7,0.5,4,10,25,0,0,994.5,1008.1
2024-05-13T01:41:00+09:00,0.8,���k��,2.8,���k��,17.8,98.8,0.5,4,10,25,0,0,994.5,1008.1
2024-05-13T01:42:00+09:00,1,���k��,2.8,���k��,17.9,98.7,0.5,3.5,10,25,0,0,994.5,1008.1
2024-05-13T01:43:00+09:00,1,���k��,2.8,���k��,17.8,98.8,0.5,3.5,10,25,0,0,994.5,1008.1
2024-05-13T01:44:00+09:00,1,���k��,2.8,���k��,17.8,98.8,0.5,3.5,10,25,0,0,994.5,1008.1
2024-05-13T01:45:00+09:00,0.9,��,2.8,���k��,17.8,98.8,0.5,3.5,10,25,0,0,994.6,1008.2
2024-05-13T01:46:00+09:00,0.9,��,2.8,���k��,17.8,98.8,0.5,3.5,10,25,0,0,994.5,1008.1
2024-05-13T01:47:00+09:00,0.9,��,2.8,���k��,17.8,98.8,0.5,3.5,10,25,0,0,994.4,1008
2024-05-13T01:48:00+09:00,0.9,��,2.8,���k��,17.7,98.8,0.5,4,10.5,25.5,0,0,994.5,1008.1
2024-05-13T01:49:00+09:00,0.8,��,2.8,���k��,17.7,98.8,0.5,4,10.5,25.5,0,0,994.5,1008.1
2024-05-13T01:50:00+09:00,0.7,���쓌,4.1,�k��,17.8,98.9,0.5,4,10.5,25.5,0,0,994.5,1008.1
2024-05-13T01:51:00+09:00,0.8,�쓌,5.1,��,17.9,99,0.5,4,10.5,25.5,0,0,994.5,1008.1
2024-05-13T01:52:00+09:00,0.7,��쓌,5.1,��,17.9,98.9,0.5,4,10.5,25.5,0,0,994.4,1008
2024-05-13T01:53:00+09:00,1,��,5.5,��,18,99,0.5,3.5,10.5,25.5,0,0,994.4,1008
2024-05-13T01:54:00+09:00,1.2,��쐼,5.5,��,18.1,99.1,0.5,3.5,10.5,25.5,0,0,994.4,1008
2024-05-13T01:55:00+09:00,1.3,��,5.5,��,18.1,99,0.5,3.5,10.5,25.5,0,0,994.4,1008
2024-05-13T01:56:00+09:00,1.3,��,5.5,��,18.1,98.9,0.5,3.5,10.5,25.5,0,0,994.4,1008
2024-05-13T01:57:00+09:00,1.4,��,5.5,��,18.1,98.8,0.5,3.5,10.5,25.5,0,0,994.4,1008
2024-05-13T01:58:00+09:00,1.4,��,5.5,��,18,98.8,0,3.5,10.5,25.5,0,0,994.4,1008
2024-05-13T01:59:00+09:00,1.5,��,5.5,��,17.9,98.6,0.5,4,11,26,0,0,994.3,1007.9
2024-05-13T02:00:00+09:00,1.5,��쓌,5.5,��,17.9,98.7,0.5,4,11,26,0,0,994.4,1008
2024-05-13T02:01:00+09:00,1.4,�쓌,5.5,��,17.9,98.7,0.5,4,11,26,0,0,994.4,1008
2024-05-13T02:02:00+09:00,1.4,�쓌,5.5,��,18,98.8,0.5,4,11,26,0,0,994.4,1008
2024-05-13T02:03:00+09:00,1.1,�쓌,4,��쐼,17.9,98.8,0.5,4,11,26,0,0,994.4,1008
2024-05-13T02:04:00+09:00,0.9,�쓌,3,��쐼,18.1,98.9,0.5,4,11,26,0,0,994.4,1008
2024-05-13T02:05:00+09:00,0.9,�쓌,2.6,�쓌,18.2,98.9,0.5,4,11,26,0,0,994.4,1008
2024-05-13T02:06:00+09:00,1,�쓌,2.6,�쓌,18.2,99,0.5,3.5,11,26,0,0,994.4,1008
2024-05-13T02:07:00+09:00,1.1,�쓌,2.9,��쓌,18.2,98.9,0.5,3.5,11,26,0,0,994.4,1008
2024-05-13T02:08:00+09:00,1.1,�쓌,2.9,��쓌,18.1,98.9,0.5,3.5,11,26,0,0,994.4,1008
2024-05-13T02:09:00+09:00,1.1,��쓌,2.9,��쓌,18.2,98.9,0,3.5,11,26,0,0,994.3,1007.9
2024-05-13T02:10:00+09:00,1.2,��쓌,2.9,��쓌,18.2,98.9,0,3.5,11,26,0,0,994.3,1007.9
2024-05-13T02:11:00+09:00,1.2,��쓌,2.9,��쓌,18.3,98.9,0,3,11,26,0,0,994.3,1007.9
2024-05-13T02:12:00+09:00,1.2,��쓌,2.9,��쓌,18.3,98.9,0,3,11,26,0,0,994.3,1007.9
2024-05-13T02:13:00+09:00,1.2,��쓌,2.9,��쓌,18.3,98.8,0,3,11,26,0,0,994.4,1008
2024-05-13T02:14:00+09:00,1.2,��쓌,2.9,��쓌,18.2,98.8,0,3,11,26,0,0,994.4,1008
2024-05-13T02:15:00+09:00,1.2,��쓌,3.3,��쐼,18.3,98.8,0,3,11,26,0,0,994.3,1007.9
2024-05-13T02:16:00+09:00,1.2,��쓌,3.3,��쐼,18.3,98.8,0,3,11,26,0,0,994.3,1007.9
2024-05-13T02:17:00+09:00,1.3,��쓌,3.3,��쐼,18.3,98.8,0,2.5,11,26,0,0,994.3,1007.9
2024-05-13T02:18:00+09:00,1.2,��쓌,3.3,��쐼,18.3,98.8,0.5,3,11.5,26.5,0,0,994.3,1007.9
2024-05-13T02:19:00+09:00,1.3,��쓌,3.3,��쐼,18.3,98.8,0.5,3,11.5,26.5,0,0,994.3,1007.9
2024-05-13T02:20:00+09:00,1.2,��쓌,3.3,��쐼,18.3,98.8,0.5,3,11.5,26.5,0,0,994.2,1007.8
2024-05-13T02:21:00+09:00,1.3,��쓌,3.3,��쐼,18.3,98.8,0.5,3,11.5,26.5,0,0,994.2,1007.8
2024-05-13T02:22:00+09:00,1.4,��,3.3,��쐼,18.4,98.8,0.5,3,11.5,26.5,0,0,994.2,1007.8
2024-05-13T02:23:00+09:00,1.4,��,3.3,��쐼,18.4,98.7,0.5,2.5,11.5,26.5,0,0,994.2,1007.8
2024-05-13T02:24:00+09:00,1.4,��,3.3,��쐼,18.4,98.7,0.5,2.5,11.5,26.5,0,0,994.3,1007.9
2024-05-13T02:25:00+09:00,1.3,��,3.3,��쐼,18.4,98.7,0.5,2.5,11.5,26.5,0,0,994.2,1007.8
2024-05-13T02:26:00+09:00,1.2,��,3.3,��쐼,18.5,98.7,0.5,2.5,11.5,26.5,0,0,994.2,1007.8
2024-05-13T02:27:00+09:00,1.1,��,3.1,��쐼,18.5,98.7,0.5,2.5,11.5,26.5,0,0,994.2,1007.8
2024-05-13T02:28:00+09:00,1.2,��,3.7,��,18.4,98.6,0,2.5,11.5,26.5,0,0,994.2,1007.8
2024-05-13T02:29:00+09:00,1.3,��,3.9,��쓌,18.5,98.6,0,2,11.5,26.5,0,0,994.2,1007.8
2024-05-13T02:30:00+09:00,1.3,��쓌,3.9,��쓌,18.5,98.5,0,2,11.5,26.5,0,0,994.2,1007.8
2024-05-13T02:31:00+09:00,1.2,��쓌,3.9,��쓌,18.4,98.5,0,2,11.5,26.5,0,0,994.2,1007.8
2024-05-13T02:32:00+09:00,1,��쓌,3.9,��쓌,18.4,98.5,0,2,11.5,26.5,0,0,994.2,1007.8
2024-05-13T02:33:00+09:00,1.1,��,3.9,��쓌,18.4,98.5,0,2,11.5,26.5,0,0,994.2,1007.8
2024-05-13T02:34:00+09:00,1.2,��,3.9,��쓌,18.4,98.5,0,2,11.5,26.5,0,0,994.2,1007.8
2024-05-13T02:35:00+09:00,1.1,��,3.9,��쓌,18.4,98.5,0,2,11.5,26.5,0,0,994.3,1007.9
2024-05-13T02:36:00+09:00,1.1,��,3.9,��쓌,18.4,98.5,0,2,11.5,26.5,0,0,994.3,1007.9
2024-05-13T02:37:00+09:00,1,��쓌,3.9,��쓌,18.4,98.5,0,2,11.5,26.5,0,0,994.3,1007.9
2024-05-13T02:38:00+09:00,0.9,��쓌,3.9,��쓌,18.4,98.5,0.5,2,12,27,0,0,994.3,1007.9
2024-05-13T02:39:00+09:00,0.6,��쓌,2,��쓌,18.4,98.5,0.5,2,12,27,0,0,994.3,1007.9
2024-05-13T02:40:00+09:00,0.6,��쓌,1.8,��쐼,18.5,98.6,0.5,2,12,27,0,0,994.3,1007.9
2024-05-13T02:41:00+09:00,0.6,�쓌,1.8,��쐼,18.5,98.7,0.5,2,12,27,0,0,994.3,1007.9
2024-05-13T02:42:00+09:00,0.6,���쓌,2,���k��,18.5,98.6,0.5,2,12,27,0,0,994.3,1007.9
2024-05-13T02:43:00+09:00,0.7,��,2.3,�k�k��,18.2,98.5,0.5,2,12,27,0,0,994.3,1007.9
2024-05-13T02:44:00+09:00,0.7,���k��,2.8,�k�k��,18.2,98.5,0.5,2,12,27,0,0,994.3,1007.9
2024-05-13T02:45:00+09:00,0.9,���k��,2.8,�k�k��,18.2,98.5,0.5,2,12,27,0,0,994.3,1007.9
2024-05-13T02:46:00+09:00,1.1,�k��,3.6,�k,18.2,98.6,0.5,2,12,27,0,0,994.3,1007.9
2024-05-13T02:47:00+09:00,1.4,�k��,3.6,�k,18.2,98.7,0.5,2,12,27,0,0,994.3,1007.9
2024-05-13T02:48:00+09:00,1.6,�k��,3.6,�k,18.2,98.8,0,1.5,12,27,0,0,994.3,1007.9
2024-05-13T02:49:00+09:00,1.8,�k�k��,3.6,�k,18.2,98.8,0,1.5,12,27,0,0,994.4,1008
2024-05-13T02:50:00+09:00,2,�k�k��,3.6,�k,18.2,98.8,0,1.5,12,27,0,0,994.3,1007.9
2024-05-13T02:51:00+09:00,2,�k�k��,3.6,�k,18.2,98.8,0.5,2,12.5,27.5,0,0,994.3,1007.9
2024-05-13T02:52:00+09:00,2.1,�k�k��,3.6,�k,18.2,98.9,0.5,2,12.5,27.5,0,0,994.4,1008
2024-05-13T02:53:00+09:00,2.3,�k�k��,3.7,�k�k��,18.1,98.8,0.5,2,12.5,27.5,0,0,994.4,1008
2024-05-13T02:54:00+09:00,2.3,�k�k��,3.7,�k�k��,18.1,98.8,0.5,2,12.5,27.5,0,0,994.4,1008
2024-05-13T02:55:00+09:00,2.3,�k�k��,3.7,�k�k��,18.1,98.9,0.5,2,12.5,27.5,0,0,994.4,1008
2024-05-13T02:56:00+09:00,2.3,�k�k��,3.7,�k�k��,18.1,98.8,0.5,2,12.5,27.5,0,0,994.4,1008
2024-05-13T02:57:00+09:00,2.1,�k�k��,3.7,�k�k��,18.1,98.9,0.5,2,12.5,27.5,0,0,994.4,1008
2024-05-13T02:58:00+09:00,2,�k�k��,3.7,�k�k��,18.1,98.9,0.5,2,12.5,27.5,0,0,994.4,1008
2024-05-13T02:59:00+09:00,1.9,�k�k��,3.7,�k�k��,18,98.9,0.5,1.5,12.5,27.5,0,0,994.4,1008
2024-05-13T03:00:00+09:00,1.7,�k�k��,3.7,�k�k��,18.1,98.9,0.5,1.5,12.5,27.5,0,0,994.3,1007.9
2024-05-13T03:01:00+09:00,1.7,�k�k��,3.7,�k�k��,18,98.9,0,1.5,12.5,27.5,0,0,994.3,1007.9
2024-05-13T03:02:00+09:00,1.7,�k��,3.7,�k�k��,18,98.9,0,1.5,12.5,27.5,0,0,994.4,1008
2024-05-13T03:03:00+09:00,1.6,�k��,3.5,�k�k��,17.9,99,0,1.5,12.5,27.5,0,0,994.4,1008
2024-05-13T03:04:00+09:00,1.6,�k��,3.2,�k�k��,17.9,98.9,0,1.5,12.5,27.5,0,0,994.3,1007.9
2024-05-13T03:05:00+09:00,1.6,�k��,3.2,�k��,17.9,99,0,1.5,12.5,27.5,0,0,994.4,1008
2024-05-13T03:06:00+09:00,1.7,�k��,3.3,�k��,17.9,99,0,1.5,12.5,27.5,0,0,994.3,1007.9
2024-05-13T03:07:00+09:00,1.8,�k��,3.7,�k��,17.9,99,0,1.5,12.5,27.5,0,0,994.3,1007.9
2024-05-13T03:08:00+09:00,2,�k��,3.7,�k��,17.9,99,0,1.5,12.5,27.5,0,0,994.3,1007.9
2024-05-13T03:09:00+09:00,2.2,�k��,3.7,�k��,17.8,99,0.5,2,13,28,0,0,994.3,1007.9
2024-05-13T03:10:00+09:00,2.4,�k��,4.3,�k��,17.9,99,0.5,2,13,28,0,0,994.3,1007.9
2024-05-13T03:11:00+09:00,2.6,�k��,4.5,�k��,17.9,99,0.5,2,13,28,0,0,994.3,1007.9
2024-05-13T03:12:00+09:00,2.7,�k��,4.6,�k��,17.8,99,0.5,2,13,28,0,0,994.3,1007.9
2024-05-13T03:13:00+09:00,2.8,�k��,4.7,�k��,17.8,99,0.5,2,13,28,0,0,994.2,1007.8
2024-05-13T03:14:00+09:00,3,�k��,4.7,�k��,17.8,99,0.5,2,13,28,0,0,994.2,1007.8
2024-05-13T03:15:00+09:00,3.1,�k��,4.8,�k��,17.7,99,0.5,2,13,28,0,0,994.2,1007.8
2024-05-13T03:16:00+09:00,3.2,�k��,4.8,�k��,17.7,99,0.5,2,13,28,0,0,994.2,1007.8
2024-05-13T03:17:00+09:00,3.3,�k��,4.8,�k��,17.8,99.1,0.5,2,13,28,0,0,994.2,1007.8
2024-05-13T03:18:00+09:00,3.4,�k��,4.8,�k��,17.8,99.1,0.5,1.5,13,28,0,0,994.2,1007.8
2024-05-13T03:19:00+09:00,3.5,�k��,4.8,�k��,17.7,99.1,0,1.5,13,28,0,0,994.2,1007.8
2024-05-13T03:20:00+09:00,3.4,�k��,4.8,�k��,17.8,99,0,1.5,13,28,0,0,994.2,1007.8
2024-05-13T03:21:00+09:00,3.3,�k��,4.8,�k��,17.8,99,0,1.5,13,28,0,0,994.2,1007.8
2024-05-13T03:22:00+09:00,3.2,�k��,4.8,�k��,17.8,99.1,0,1.5,13,28,0,0,994.3,1007.9
2024-05-13T03:23:00+09:00,3.1,�k��,4.8,�k��,17.8,99,0,1.5,13,28,0,0,994.4,1008
2024-05-13T03:24:00+09:00,3,�k��,4.8,�k��,17.7,99,0,1.5,13,28,0,0,994.4,1008
2024-05-13T03:25:00+09:00,2.9,�k��,4.7,�k��,17.8,99,0,1.5,13,28,0,0,994.4,1008
2024-05-13T03:26:00+09:00,2.8,�k�k��,4.7,�k��,17.8,99.1,0,1.5,13,28,0,0,994.4,1008
2024-05-13T03:27:00+09:00,2.7,�k�k��,4.7,�k��,17.7,99,0,1.5,13,28,0,0,994.4,1008
2024-05-13T03:28:00+09:00,2.5,�k�k��,4.2,�k,17.8,99,0,1.5,13,28,0,0,994.4,1008
2024-05-13T03:29:00+09:00,2.4,�k�k��,4.2,�k,17.8,99,0,1.5,13,28,0,0,994.4,1008
2024-05-13T03:30:00+09:00,2.4,�k�k��,4.2,�k,17.8,99,0.5,2,13.5,28.5,0,0,994.4,1008
2024-05-13T03:31:00+09:00,2.3,�k�k��,4.2,�k,17.8,99,0.5,2,13.5,28.5,0,0,994.3,1007.9
2024-05-13T03:32:00+09:00,2.3,�k�k��,4.2,�k,17.8,99,0.5,2,13.5,28.5,0,0,994.4,1008
2024-05-13T03:33:00+09:00,2.2,�k�k��,4.2,�k,17.8,99,0.5,2,13.5,28.5,0,0,994.4,1008
2024-05-13T03:34:00+09:00,2.2,�k�k��,3.7,�k�k��,17.9,99.1,0.5,2,13.5,28.5,0,0,994.5,1008.1
2024-05-13T03:35:00+09:00,2.1,�k�k��,3.7,�k�k��,17.9,99.1,0.5,2,13.5,28.5,0,0,994.5,1008.1
2024-05-13T03:36:00+09:00,2.1,�k�k��,3.6,�k��,17.9,99.1,0.5,2,13.5,28.5,0,0,994.6,1008.2
2024-05-13T03:37:00+09:00,2,�k�k��,3.7,�k�k��,17.9,99.1,0.5,2,13.5,28.5,0,0,994.6,1008.2
2024-05-13T03:38:00+09:00,1.9,�k�k��,3.7,�k�k��,17.9,99.1,0.5,1.5,13.5,28.5,0,0,994.7,1008.3
2024-05-13T03:39:00+09:00,1.8,�k�k��,3.7,�k�k��,17.9,99.1,0.5,1.5,13.5,28.5,0,0,994.7,1008.3
2024-05-13T03:40:00+09:00,1.6,�k�k��,3.7,�k�k��,17.9,99.1,0,1.5,13.5,28.5,0,0,994.7,1008.3
2024-05-13T03:41:00+09:00,1.5,�k,3.7,�k�k��,17.9,99,0,1.5,13.5,28.5,0,0,994.7,1008.3
2024-05-13T03:42:00+09:00,1.3,�k,3.7,�k�k��,17.9,99.1,0,1.5,13.5,28.5,0,0,994.8,1008.4
2024-05-13T03:43:00+09:00,1.2,�k�k��,3.7,�k�k��,17.9,99,0,1.5,13.5,28.5,0,0,994.8,1008.4
2024-05-13T03:44:00+09:00,1,�k��,3.7,�k�k��,17.9,99,0,1.5,13.5,28.5,0,0,994.8,1008.4
2024-05-13T03:45:00+09:00,0.8,�k��,3.7,�k�k��,17.9,99,0,1.5,13.5,28.5,0,0,994.8,1008.4
2024-05-13T03:46:00+09:00,0.6,���k��,3.7,�k�k��,18,99,0.5,2,14,29,0,0,994.8,1008.4
2024-05-13T03:47:00+09:00,0.3,���k��,2,�k��,18,99,0.5,2,14,29,0,0,994.8,1008.4
2024-05-13T03:48:00+09:00,0.3,���k��,1.5,���k��,18,99,0.5,2,14,29,0,0,994.8,1008.4
2024-05-13T03:49:00+09:00,0.4,���k��,2.3,�k��,18,99,0.5,2,14,29,0,0,994.8,1008.4
2024-05-13T03:50:00+09:00,0.6,�k��,2.6,�k�k��,18,99,0.5,2,14,29,0,0,994.8,1008.4
2024-05-13T03:51:00+09:00,0.7,�k�k��,2.6,�k�k��,18,99,0.5,1.5,14,29,0,0,994.8,1008.4
2024-05-13T03:52:00+09:00,0.9,�k,2.6,�k�k��,17.9,99,0.5,1.5,14,29,0,0,994.7,1008.3
2024-05-13T03:53:00+09:00,1,�k�k��,3.3,�k�k��,18.1,99,0.5,1.5,14,29,0,0,994.7,1008.3
2024-05-13T03:54:00+09:00,1.1,�k�k��,3.3,�k�k��,18.1,99.1,0.5,1.5,14,29,0,0,994.6,1008.2
2024-05-13T03:55:00+09:00,1.4,�k�k��,4.6,�k�k��,18.1,99,0.5,1.5,14,29,0,0,994.6,1008.2
2024-05-13T03:56:00+09:00,1.8,�k��,5.4,�k�k��,18,98.9,0.5,2,14.5,29.5,0,0,994.7,1008.3
2024-05-13T03:57:00+09:00,2.2,�k��,5.6,�k�k��,17.9,98.9,0.5,2,14.5,29.5,0,0,994.8,1008.4
2024-05-13T03:58:00+09:00,2.6,�k�k��,7.2,�k,17.9,98.9,0.5,2,14.5,29.5,0,0,994.9,1008.5
2024-05-13T03:59:00+09:00,2.9,�k�k��,10.9,�k,17.7,98.7,0.5,2,14.5,29.5,0,0,994.8,1008.4
2024-05-13T04:00:00+09:00,3.2,�k�k��,10.9,�k,17.6,98.6,0.5,2,14.5,29.5,0,0,994.8,1008.4
2024-05-13T04:01:00+09:00,3.6,�k�k��,10.9,�k,17.6,98.3,0.5,2,14.5,29.5,0,0,994.9,1008.5
2024-05-13T04:02:00+09:00,3.9,�k,10.9,�k,17.4,98.1,0.5,2,14.5,29.5,0,0,995,1008.6
2024-05-13T04:03:00+09:00,4.2,�k,10.9,�k,17.3,97.7,0.5,2,14.5,29.5,0,0,995,1008.6
2024-05-13T04:04:00+09:00,4.7,�k,11.9,�k�k��,17.1,97.1,0.5,2,14.5,29.5,0,0,994.9,1008.5
2024-05-13T04:05:00+09:00,5,�k,11.9,�k�k��,16.9,96.6,0.5,2,14.5,29.5,0,0,994.9,1008.6
2024-05-13T04:06:00+09:00,5.3,�k,13.7,�k,16.9,96.3,0.5,2.5,15,30,0,0,994.9,1008.6
2024-05-13T04:07:00+09:00,5.5,�k,13.7,�k,16.8,96,0.5,2.5,15,30,0,0,994.9,1008.6
2024-05-13T04:08:00+09:00,5.5,�k,13.7,�k,16.7,95.7,0.5,2.5,15,30,0,0,995,1008.7
2024-05-13T04:09:00+09:00,5.6,�k,13.7,�k,16.6,95.4,0.5,2,15,30,0,0,995.1,1008.8
2024-05-13T04:10:00+09:00,5.6,�k,13.7,�k,16.5,95.4,0.5,2,15,30,0,0,995.1,1008.8
2024-05-13T04:11:00+09:00,5.5,�k,13.7,�k,16.4,95.2,0.5,2,15,30,0,0,995.1,1008.8
2024-05-13T04:12:00+09:00,5.4,�k,13.7,�k,16.2,94.2,0.5,2,15,30,0,0,995.1,1008.8
2024-05-13T04:13:00+09:00,5.4,�k,13.7,�k,16.2,93.6,0.5,2,15,30,0,0,995.3,1009
2024-05-13T04:14:00+09:00,5.2,�k,13.7,�k,16.2,93.8,0.5,2,15,30,0,0,995.4,1009.1
2024-05-13T04:15:00+09:00,5.1,�k,13.7,�k,16.2,94,0.5,2,15,30,0,0,995.4,1009.1
2024-05-13T04:16:00+09:00,4.9,�k,12.3,�k�k��,16.1,93.6,0,2,15,30,0,0,995.4,1009.1
2024-05-13T04:17:00+09:00,4.9,�k,11.6,�k,16,92.9,0,2,15,30,0,0,995.4,1009.1
2024-05-13T04:18:00+09:00,4.8,�k,11.6,�k,16,92.5,0,2,15,30,0,0,995.5,1009.2
2024-05-13T04:19:00+09:00,4.6,�k,11.6,�k,15.9,92.1,0,2,15,30,0,0,995.5,1009.2
2024-05-13T04:20:00+09:00,4.7,�k,11.6,�k,15.8,92.3,0,2,15,30,0,0,995.5,1009.2
2024-05-13T04:21:00+09:00,4.7,�k,10.2,�k,15.8,92.4,0,2,15,30,0,0,995.4,1009.1
2024-05-13T04:22:00+09:00,4.7,�k�k��,10.2,�k,15.6,91.8,0,2,15,30,0,0,995.5,1009.2
2024-05-13T04:23:00+09:00,4.6,�k,10.2,�k,15.6,92.1,0,2,15,30,0,0,995.5,1009.2
2024-05-13T04:24:00+09:00,4.6,�k,11.1,�k�k��,15.6,92.2,0,2,15,30,0,0,995.5,1009.2
2024-05-13T04:25:00+09:00,4.6,�k,11.7,�k�k��,15.5,91.8,0,2,15,30,0,0,995.5,1009.2
2024-05-13T04:26:00+09:00,4.7,�k,11.7,�k�k��,15.5,91.6,0,2,15,30,0,0,995.7,1009.4
2024-05-13T04:27:00+09:00,4.8,�k,11.9,�k,15.5,91.8,0,2,15,30,0,0,995.6,1009.3
2024-05-13T04:28:00+09:00,4.7,�k,11.9,�k,15.4,90.8,0,2,15,30,0,0,995.6,1009.3
2024-05-13T04:29:00+09:00,4.6,�k,11.9,�k,15.3,91.7,0.5,2.5,15.5,30.5,0,0,995.6,1009.3
2024-05-13T04:30:00+09:00,4.6,�k,11.9,�k,15.2,91.7,0.5,2,15.5,30.5,0,0,995.6,1009.3
2024-05-13T04:31:00+09:00,4.7,�k,11.9,�k,15.3,92.1,0.5,2,15.5,30.5,0,0,995.7,1009.4
2024-05-13T04:32:00+09:00,4.7,�k,11.9,�k,15.2,92.1,0.5,2,15.5,30.5,0,0,995.7,1009.5
2024-05-13T04:33:00+09:00,5,�k,11.9,�k,15.2,91.4,0.5,2,15.5,30.5,0,0,995.7,1009.5
2024-05-13T04:34:00+09:00,5,�k,11.9,�k,15.2,91.5,0.5,2,15.5,30.5,0,0,995.7,1009.5
2024-05-13T04:35:00+09:00,4.9,�k�k��,11.9,�k,15.2,91.9,0.5,2,15.5,30.5,0,0,995.8,1009.6
2024-05-13T04:36:00+09:00,4.8,�k�k��,11.9,�k,15.2,91.4,0.5,2,15.5,30.5,0,0,995.9,1009.7
2024-05-13T04:37:00+09:00,4.7,�k�k��,11.3,�k,15.1,91.2,0.5,2,15.5,30.5,0,0,995.9,1009.7
2024-05-13T04:38:00+09:00,4.7,�k�k��,11.7,�k�k��,15.1,91.4,0.5,2,15.5,30.5,0,0,995.9,1009.7
2024-05-13T04:39:00+09:00,4.9,�k�k��,11.7,�k�k��,15,91.6,0,2,15.5,30.5,0,0,995.8,1009.6
2024-05-13T04:40:00+09:00,5,�k,11.7,�k�k��,15,91.9,0,2,15.5,30.5,0,0,995.9,1009.7
2024-05-13T04:41:00+09:00,4.8,�k�k��,11.7,�k�k��,15,91.9,0,2,15.5,30.5,0,0,996,1009.8
2024-05-13T04:42:00+09:00,4.8,�k�k��,11.7,�k�k��,15,91.8,0,2,15.5,30.5,0,0,996,1009.8
2024-05-13T04:43:00+09:00,4.8,�k,11.7,�k�k��,15.1,91.4,0,2,15.5,30.5,0,0,996.1,1009.9
2024-05-13T04:44:00+09:00,4.8,�k,11.7,�k�k��,15,91.7,0,2,15.5,30.5,0,0,996.1,1009.9
2024-05-13T04:45:00+09:00,5.1,�k,11.7,�k�k��,15,92.4,0,2,15.5,30.5,0,0,996.1,1009.9
2024-05-13T04:46:00+09:00,5.1,�k,11.7,�k�k��,15,92.1,0,1.5,15.5,30.5,0,0,996.2,1010
2024-05-13T04:47:00+09:00,5,�k,11.7,�k�k��,15,91.8,0,1.5,15.5,30.5,0,0,996.3,1010.1